Location: Munkebjergskolens Observatorium
(55.3864°N, 10.3987°E)
Time: 06:15:36
(UTC+01:00)

EO-88 - Visible Passes

Search period start: 23 March 2023 00:00
Search period end: 02 April 2023 01:00
Orbit: 400 x 403 km, 97.2° (Epoch: 22 March)

Date Brightness Start Highest point End Pass type
(mag) Time Alt. Az. Time Alt. Az. Time Alt. Az.
23 Mar ? 20:39:23 18° NE 20:39:23 18° NE 20:41:07 10° NNE visible
23 Mar ? 22:12:01 21° NW 22:12:01 21° NW 22:13:21 10° NNW visible
24 Mar ? 21:21:30 32° NNE 21:21:30 32° NNE 21:23:26 10° N visible
24 Mar ? 22:54:07 10° WNW 22:54:07 10° WNW 22:54:14 10° NW visible
25 Mar ? 20:30:48 16° NE 20:30:48 16° NE 20:32:34 10° NNE visible
25 Mar ? 22:03:25 26° NW 22:03:25 26° NW 22:05:04 10° NNW visible
26 Mar ? 22:12:33 33° NNE 22:12:33 33° NNE 22:14:41 10° N visible
26 Mar ? 23:45:09 13° WNW 23:45:09 13° WNW 23:45:51 10° NW visible
27 Mar ? 21:21:31 14° ENE 21:21:35 14° ENE 21:23:13 10° NNE visible
27 Mar ? 22:54:06 34° NNW 22:54:06 34° NNW 22:56:03 10° NNW visible
28 Mar ? 22:02:53 30° NE 22:02:53 30° NE 22:05:11 10° N visible
28 Mar ? 23:35:28 17° WNW 23:35:28 17° WNW 23:36:40 10° NW visible
29 Mar ? 21:11:30 11° ENE 21:11:57 11° ENE 21:12:53 10° NE visible
29 Mar ? 22:44:04 43° NNW 22:44:04 43° NNW 22:46:17 10° NNW visible
30 Mar ? 21:52:30 25° ENE 21:52:30 25° ENE 21:54:56 10° N visible
30 Mar ? 23:25:04 22° WNW 23:25:04 22° WNW 23:26:43 10° NW visible
31 Mar ? 22:33:19 52° N 22:33:19 52° N 22:35:48 10° N visible
01 Apr ? 21:41:25 20° ENE 21:41:35 20° ENE 21:43:54 10° NNE visible
01 Apr ? 23:13:57 29° WNW 23:13:57 29° WNW 23:16:00 10° NNW visible
